QPF
0.00 0.00 0.00 0.00 0.00 0.00 0.00 0.00 0.01 0.01 0.01 0.00 0.01 0.00 0.00 0.00 0.00 0.00 0.00 0.00 0.00 0.00 0.00 0.00 0.00 0.00 0.00 0.00 0.00 0.00 0.00 0.01 0.01 0.00 0.00 0.01 0.00 0.00 0.01 0.01 0.01 0.01 0.01
0.00 0.00 0.00 0.00 0.00 0.00 0.00 0.00 0.01 0.01 0.01 0.01 0.01 0.00 0.00 0.00 0.00 0.00 0.00 0.00 0.00 0.00 0.00 0.00 0.00 0.00 0.00 0.00 0.00 0.00 0.00 0.00 0.00 0.00 0.00 0.00 0.00 0.01 0.01 0.01 0.01 0.01 0.01
0.00 0.00 0.00 0.00 0.00 0.00 0.00 0.00 0.00 0.01 0.01 0.01 0.01 0.00 0.00 0.00 0.00 0.00 0.00 0.00 0.00 0.00 0.00 0.00 0.00 0.00 0.00 0.01 0.00 0.00 0.00 0.00 0.00 0.00 0.00 0.00 0.01 0.02 0.02 0.01 0.01 0.01 0.01
0.00 0.00 0.00 0.00 0.00 0.00 0.00 0.00 0.01 0.01 0.01 0.01 0.01 0.01 0.00 0.00 0.00 0.00 0.00 0.00 0.00 0.00 0.00 0.00 0.00 0.00 0.00 0.00 0.01 0.00 0.00 0.00 0.00 0.01 0.01 0.01 0.01 0.02 0.02 0.01 0.01 0.02 0.01
0.00 0.00 0.00 0.00 0.00 0.01 0.01 0.01 0.01 0.01 0.01 0.01 0.01 0.01 0.01 0.00 0.00 0.00 0.00 0.00 0.00 0.00 0.00 0.00 0.00 0.00 0.00 0.00 0.00 0.01 0.00 0.00 0.01 0.01 0.01 0.01 0.02 0.01 0.01 0.01 0.02 0.01 0.01
0.01 0.00 0.00 0.00 0.00 0.01 0.01 0.01 0.01 0.01 0.01 0.01 0.01 0.01 0.01 0.01 0.00 0.00 0.00 0.00 0.00 0.00 0.00 0.00 0.00 0.00 0.00 0.00 0.00 0.00 0.00 0.00 0.01 0.01 0.01 0.01 0.01 0.00 0.00 0.01 0.01 0.01 0.01
0.01 0.01 0.01 0.01 0.01 0.01 0.01 0.01 0.01 0.01 0.01 0.01 0.01 0.01 0.01 0.01 0.00 0.00 0.00 0.00 0.00 0.00 0.00 0.00 0.00 0.00 0.00 0.00 0.00 0.00 0.00 0.00 0.00 0.01 0.01 0.00 0.00 0.00 0.00 0.00 0.00 0.01 0.01
0.01 0.01 0.01 0.01 0.01 0.01 0.00 0.00 0.01 0.01 0.01 0.01 0.01 0.00 0.00 0.00 0.00 0.01 0.01 0.00 0.00 0.00 0.00 0.00 0.00 0.00 0.00 0.00 0.00 0.00 0.00 0.00 0.00 0.00 0.00 0.00 0.00 0.00 0.00 0.00 0.00 0.00 0.00
0.00 0.00 0.01 0.01 0.01 0.01 0.00 0.00 0.00 0.00 0.01 0.01 0.01 0.00 0.00 0.00 0.00 0.00 0.00 0.00 0.00 0.00 0.00 0.00 0.00 0.00 0.00 0.00 0.00 0.00 0.00 0.00 0.00 0.00 0.00 0.00 0.00 0.00 0.00 0.01 0.01 0.01 0.00
0.00 0.00 0.00 0.00 0.00 0.00 0.00 0.01 0.01 0.00 0.00 0.01 0.01 0.01 0.00 0.00 0.00 0.00 0.00 0.00 0.00 0.00 0.00 0.00 0.00 0.00 0.00 0.00 0.00 0.00 0.00 0.00 0.00 0.00 0.00 0.00 0.00 0.00 0.00 0.00 0.01 0.01 0.01
0.00 0.00 0.00 0.00 0.00 0.00 0.00 0.00 0.01 0.01 0.00 0.01 0.01 0.01 0.01 0.01 0.01 0.00 0.00 0.00 0.00 0.00 0.00 0.00 0.00 0.00 0.00 0.00 0.00 0.00 0.00 0.00 0.00 0.00 0.00 0.00 0.00 0.00 0.00 0.00 0.00 0.01 0.01
0.00 0.00 0.00 0.00 0.00 0.00 0.00 0.00 0.01 0.01 0.01 0.00 0.01 0.01 0.01 0.01 0.01 0.01 0.01 0.00 0.00 0.00 0.00 0.00 0.00 0.00 0.00 0.00 0.00 0.00 0.00 0.00 0.01 0.01 0.01 0.00 0.00 0.00 0.00 0.00 0.00 0.00 0.00
0.00 0.00 0.00 0.00 0.01 0.01 0.01 0.01 0.01 0.01 0.01 0.01 0.01 0.01 0.01 0.01 0.01 0.01 0.01 0.00 0.00 0.00 0.00 0.00 0.00 0.00 0.00 0.00 0.00 0.00 0.00 0.00 0.01 0.01 0.01 0.01 0.00 0.00 0.00 0.00 0.00 0.00 0.00
0.00 0.00 0.00 0.00 0.01 0.01 0.01 0.01 0.01 0.01 0.01 0.01 0.01 0.01 0.01 0.01 0.01 0.01 0.00 0.00 0.00 0.00 0.00 0.00 0.00 0.00 0.00 0.00 0.00 0.00 0.00 0.00 0.01 0.01 0.01 0.01 0.00 0.00 0.00 0.00 0.00 0.00 0.00
0.00 0.00 0.00 0.01 0.01 0.01 0.01 0.01 0.01 0.01 0.01 0.01 0.01 0.01 0.01 0.01 0.01 0.00 0.00 0.00 0.00 0.00 0.00 0.00 0.00 0.00 0.00 0.00 0.00 0.00 0.00 0.00 0.01 0.01 0.01 0.01 0.01 0.01 0.00 0.00 0.00 0.00 0.00
0.00 0.00 0.00 0.00 0.01 0.01 0.01 0.02 0.02 0.01 0.02 0.03 0.02 0.01 0.01 0.01 0.00 0.00 0.00 0.00 0.00 0.00 0.00 0.00 0.00 0.00 0.00 0.00 0.00 0.00 0.00 0.01 0.01 0.01 0.01 0.01 0.01 0.01 0.01 0.01 0.00 0.01 0.01
0.00 0.00 0.00 0.00 0.00 0.01 0.01 0.01 0.01 0.01 0.01 0.01 0.01 0.01 0.01 0.01 0.00 0.00 0.00 0.00 0.00 0.00 0.00 0.00 0.00 0.00 0.00 0.00 0.00 0.00 0.01 0.01 0.01 0.01 0.01 0.01 0.01 0.01 0.01 0.01 0.01 0.01 0.01
0.00 0.00 0.00 0.00 0.00 0.00 0.01 0.01 0.01 0.01 0.01 0.01 0.01 0.01 0.01 0.01 0.01 0.01 0.01 0.00 0.00 0.00 0.00 0.00 0.00 0.00 0.00 0.00 0.00 0.00 0.01 0.01 0.01 0.01 0.01 0.01 0.01 0.01 0.01 0.01 0.01 0.01 0.01
0.00 0.00 0.00 0.00 0.00 0.00 0.01 0.01 0.01 0.01 0.01 0.01 0.01 0.01 0.01 0.01 0.01 0.01 0.01 0.00 0.00 0.00 0.00 0.00 0.00 0.00 0.00 0.00 0.00 0.00 0.00 0.00 0.00 0.01 0.01 0.01 0.01 0.01 0.01 0.01 0.01 0.01 0.01
0.00 0.00 0.00 0.00 0.00 0.00 0.01 0.01 0.01 0.01 0.01 0.01 0.01 0.01 0.01 0.01 0.01 0.00 0.00 0.00 0.00 0.00 0.00 0.00 0.00 0.00 0.00 0.00 0.00 0.00 0.00 0.00 0.00 0.01 0.01 0.01 0.01 0.01 0.01 0.01 0.02 0.02 0.01
0.00 0.00 0.00 0.00 0.01 0.01 0.01 0.01 0.01 0.02 0.02 0.02 0.01 0.01 0.01 0.01 0.01 0.00 0.00 0.00 0.00 0.00 0.00 0.00 0.00 0.00 0.00 0.00 0.00 0.01 0.00 0.00 0.01 0.01 0.01 0.01 0.01 0.01 0.01 0.02 0.02 0.02 0.02
0.00 0.01 0.00 0.01 0.01 0.01 0.01 0.01 0.01 0.01 0.01 0.01 0.01 0.01 0.00 0.00 0.00 0.00 0.00 0.00 0.00 0.00 0.00 0.00 0.00 0.00 0.00 0.00 0.00 0.01 0.01 0.01 0.01 0.01 0.01 0.01 0.01 0.01 0.02 0.02 0.03 0.03 0.03
0.01 0.01 0.01 0.02 0.02 0.02 0.02 0.02 0.02 0.02 0.01 0.01 0.01 0.01 0.01 0.00 0.00 0.00 0.00 0.00 0.00 0.00 0.00 0.00 0.00 0.00 0.00 0.00 0.01 0.01 0.01 0.01 0.01 0.01 0.02 0.02 0.02 0.02 0.02 0.03 0.04 0.04 0.04
0.02 0.02 0.02 0.03 0.03 0.03 0.03 0.03 0.02 0.02 0.02 0.02 0.01 0.01 0.01 0.01 0.00 0.01 0.01 0.00 0.00 0.00 0.00 0.00 0.00 0.00 0.00 0.01 0.01 0.01 0.01 0.01 0.01 0.01 0.01 0.02 0.02 0.02 0.03 0.03 0.04 0.05 0.05
0.03 0.03 0.03 0.03 0.03 0.04 0.05 0.05 0.04 0.04 0.03 0.03 0.02 0.01 0.01 0.01 0.00 0.01 0.01 0.01 0.00 0.00 0.00 0.00 0.01 0.01 0.01 0.01 0.01 0.01 0.01 0.00 0.00 0.01 0.01 0.01 0.02 0.02 0.03 0.04 0.05 0.05 0.05
0.01 0.02 0.02 0.03 0.03 0.03 0.04 0.04 0.04 0.04 0.03 0.03 0.03 0.02 0.01 0.01 0.00 0.00 0.01 0.01 0.01 0.01 0.01 0.01 0.01 0.01 0.01 0.01 0.02 0.01 0.01 0.01 0.00 0.01 0.01 0.01 0.02 0.02 0.03 0.04 0.04 0.05 0.05
MSLP
1017.78 1018.08 1018.38 1018.67 1018.93 1019.18 1019.41 1019.64 1019.87 1020.12 1020.39 1020.67 1020.94 1021.18 1021.38 1021.52 1021.61 1021.64 1021.63 1021.61 1021.58 1021.57 1021.57 1021.59 1021.61 1021.61 1021.58 1021.52 1021.42 1021.31 1021.20 1021.12 1021.08 1021.10 1021.16 1021.26 1021.35 1021.40 1021.38 1021.27 1021.06 1020.77 1020.43
1017.53 1017.84 1018.15 1018.45 1018.72 1018.98 1019.22 1019.47 1019.72 1019.98 1020.26 1020.56 1020.84 1021.11 1021.34 1021.52 1021.64 1021.71 1021.73 1021.73 1021.73 1021.73 1021.74 1021.76 1021.78 1021.78 1021.75 1021.69 1021.60 1021.49 1021.37 1021.27 1021.20 1021.18 1021.22 1021.29 1021.38 1021.47 1021.51 1021.51 1021.44 1021.31 1021.14
1017.34 1017.66 1017.98 1018.29 1018.58 1018.85 1019.10 1019.35 1019.61 1019.87 1020.16 1020.45 1020.74 1021.02 1021.26 1021.45 1021.59 1021.68 1021.72 1021.73 1021.74 1021.74 1021.76 1021.78 1021.80 1021.82 1021.81 1021.77 1021.69 1021.60 1021.48 1021.38 1021.29 1021.25 1021.24 1021.28 1021.35 1021.42 1021.50 1021.55 1021.57 1021.56 1021.51
1017.23 1017.55 1017.88 1018.19 1018.48 1018.76 1019.01 1019.25 1019.50 1019.75 1020.03 1020.31 1020.59 1020.86 1021.09 1021.28 1021.43 1021.51 1021.56 1021.58 1021.58 1021.58 1021.59 1021.62 1021.66 1021.69 1021.71 1021.71 1021.68 1021.61 1021.53 1021.43 1021.34 1021.27 1021.23 1021.23 1021.26 1021.31 1021.38 1021.45 1021.51 1021.56 1021.59
1017.24 1017.54 1017.85 1018.15 1018.43 1018.69 1018.92 1019.14 1019.36 1019.58 1019.83 1020.08 1020.34 1020.58 1020.81 1020.99 1021.12 1021.20 1021.24 1021.25 1021.24 1021.24 1021.25 1021.29 1021.34 1021.40 1021.46 1021.51 1021.53 1021.52 1021.48 1021.41 1021.33 1021.26 1021.19 1021.16 1021.14 1021.16 1021.20 1021.26 1021.32 1021.39 1021.45
1017.39 1017.65 1017.92 1018.18 1018.42 1018.63 1018.82 1018.99 1019.16 1019.34 1019.54 1019.75 1019.97 1020.19 1020.39 1020.55 1020.67 1020.74 1020.76 1020.76 1020.75 1020.74 1020.75 1020.79 1020.87 1020.96 1021.07 1021.17 1021.25 1021.30 1021.31 1021.29 1021.24 1021.17 1021.10 1021.04 1020.99 1020.97 1020.98 1021.01 1021.05 1021.11 1021.18
1017.69 1017.89 1018.09 1018.28 1018.45 1018.59 1018.71 1018.81 1018.92 1019.03 1019.18 1019.34 1019.52 1019.71 1019.87 1020.01 1020.11 1020.16 1020.17 1020.16 1020.13 1020.12 1020.13 1020.18 1020.27 1020.39 1020.54 1020.69 1020.83 1020.93 1021.00 1021.03 1021.01 1020.97 1020.90 1020.84 1020.78 1020.73 1020.71 1020.72 1020.74 1020.77 1020.82
1018.16 1018.27 1018.38 1018.49 1018.56 1018.61 1018.63 1018.65 1018.67 1018.72 1018.80 1018.91 1019.04 1019.19 1019.32 1019.43 1019.51 1019.54 1019.53 1019.50 1019.46 1019.44 1019.44 1019.49 1019.58 1019.72 1019.89 1020.08 1020.26 1020.41 1020.52 1020.59 1020.61 1020.59 1020.55 1020.49 1020.43 1020.39 1020.36 1020.35 1020.35 1020.38 1020.40
1018.78 1018.80 1018.81 1018.81 1018.77 1018.72 1018.64 1018.57 1018.51 1018.48 1018.50 1018.55 1018.63 1018.73 1018.83 1018.91 1018.95 1018.95 1018.92 1018.86 1018.80 1018.75 1018.73 1018.76 1018.84 1018.98 1019.15 1019.34 1019.54 1019.71 1019.85 1019.94 1019.99 1020.00 1019.98 1019.94 1019.90 1019.87 1019.86 1019.85 1019.86 1019.88 1019.90
1019.55 1019.47 1019.38 1019.26 1019.12 1018.96 1018.79 1018.63 1018.49 1018.39 1018.34 1018.34 1018.37 1018.43 1018.48 1018.51 1018.51 1018.47 1018.40 1018.29 1018.19 1018.09 1018.04 1018.03 1018.07 1018.18 1018.32 1018.49 1018.67 1018.84 1018.98 1019.08 1019.14 1019.17 1019.17 1019.16 1019.14 1019.14 1019.15 1019.18 1019.21 1019.25 1019.28
1020.42 1020.25 1020.06 1019.85 1019.61 1019.36 1019.10 1018.86 1018.66 1018.50 1018.40 1018.34 1018.33 1018.32 1018.32 1018.30 1018.24 1018.14 1018.00 1017.83 1017.66 1017.50 1017.38 1017.31 1017.29 1017.33 1017.42 1017.55 1017.68 1017.81 1017.92 1018.01 1018.06 1018.09 1018.11 1018.12 1018.13 1018.16 1018.21 1018.28 1018.35 1018.43 1018.49
1021.36 1021.12 1020.85 1020.55 1020.23 1019.90 1019.58 1019.28 1019.03 1018.82 1018.67 1018.57 1018.50 1018.44 1018.37 1018.27 1018.13 1017.95 1017.73 1017.48 1017.22 1016.98 1016.77 1016.62 1016.52 1016.48 1016.49 1016.54 1016.61 1016.68 1016.74 1016.78 1016.81 1016.83 1016.84 1016.86 1016.90 1016.96 1017.05 1017.15 1017.27 1017.39 1017.50
1022.32 1022.02 1021.69 1021.32 1020.94 1020.56 1020.19 1019.85 1019.56 1019.32 1019.13 1018.98 1018.85 1018.72 1018.58 1018.40 1018.18 1017.90 1017.58 1017.23 1016.87 1016.53 1016.23 1015.97 1015.78 1015.64 1015.56 1015.52 1015.51 1015.50 1015.50 1015.49 1015.48 1015.46 1015.46 1015.47 1015.52 1015.60 1015.71 1015.84 1015.99 1016.15 1016.30
1023.26 1022.90 1022.52 1022.10 1021.68 1021.25 1020.85 1020.49 1020.17 1019.91 1019.68 1019.49 1019.31 1019.12 1018.89 1018.63 1018.30 1017.92 1017.50 1017.05 1016.59 1016.15 1015.74 1015.39 1015.10 1014.87 1014.70 1014.57 1014.47 1014.38 1014.31 1014.23 1014.17 1014.11 1014.07 1014.06 1014.09 1014.16 1014.27 1014.41 1014.58 1014.76 1014.93
1024.11 1023.72 1023.29 1022.84 1022.38 1021.93 1021.51 1021.13 1020.80 1020.50 1020.25 1020.01 1019.78 1019.52 1019.22 1018.87 1018.45 1017.98 1017.46 1016.92 1016.37 1015.84 1015.34 1014.91 1014.53 1014.22 1013.96 1013.75 1013.57 1013.41 1013.26 1013.12 1012.99 1012.87 1012.79 1012.73 1012.72 1012.76 1012.84 1012.97 1013.12 1013.29 1013.46
1024.85 1024.42 1023.95 1023.47 1022.99 1022.52 1022.09 1021.69 1021.34 1021.03 1020.74 1020.47 1020.18 1019.86 1019.49 1019.07 1018.58 1018.03 1017.44 1016.82 1016.20 1015.61 1015.05 1014.55 1014.11 1013.73 1013.41 1013.13 1012.88 1012.65 1012.44 1012.24 1012.04 1011.86 1011.71 1011.60 1011.53 1011.51 1011.53 1011.60 1011.71 1011.84 1011.97
1025.45 1024.98 1024.49 1023.98 1023.48 1023.00 1022.55 1022.14 1021.77 1021.43 1021.11 1020.79 1020.46 1020.09 1019.67 1019.19 1018.65 1018.05 1017.41 1016.75 1016.10 1015.46 1014.87 1014.33 1013.85 1013.43 1013.06 1012.73 1012.43 1012.15 1011.88 1011.62 1011.36 1011.12 1010.90 1010.71 1010.57 1010.47 1010.41 1010.40 1010.43 1010.49 1010.56
1025.89 1025.41 1024.89 1024.37 1023.85 1023.35 1022.89 1022.46 1022.06 1021.69 1021.34 1020.99 1020.62 1020.21 1019.75 1019.23 1018.66 1018.04 1017.39 1016.72 1016.05 1015.40 1014.80 1014.25 1013.75 1013.31 1012.91 1012.55 1012.21 1011.89 1011.58 1011.26 1010.95 1010.64 1010.36 1010.09 1009.86 1009.67 1009.52 1009.42 1009.35 1009.31 1009.30
1026.20 1025.70 1025.18 1024.65 1024.12 1023.60 1023.12 1022.67 1022.24 1021.84 1021.46 1021.07 1020.66 1020.22 1019.74 1019.21 1018.63 1018.01 1017.36 1016.70 1016.04 1015.41 1014.82 1014.27 1013.77 1013.32 1012.91 1012.53 1012.17 1011.81 1011.46 1011.10 1010.74 1010.39 1010.03 1009.70 1009.38 1009.10 1008.86 1008.65 1008.48 1008.34 1008.24
1026.40 1025.90 1025.38 1024.84 1024.31 1023.78 1023.28 1022.80 1022.35 1021.91 1021.49 1021.07 1020.63 1020.16 1019.66 1019.13 1018.55 1017.95 1017.32 1016.68 1016.06 1015.45 1014.88 1014.35 1013.85 1013.40 1012.98 1012.59 1012.21 1011.83 1011.45 1011.07 1010.67 1010.27 1009.86 1009.47 1009.08 1008.72 1008.39 1008.08 1007.81 1007.58 1007.38
1026.51 1026.02 1025.51 1024.98 1024.45 1023.92 1023.40 1022.89 1022.41 1021.94 1021.48 1021.01 1020.55 1020.06 1019.55 1019.01 1018.44 1017.86 1017.25 1016.65 1016.05 1015.47 1014.92 1014.40 1013.92 1013.46 1013.04 1012.64 1012.24 1011.85 1011.46 1011.05 1010.63 1010.20 1009.76 1009.32 1008.89 1008.46 1008.05 1007.67 1007.31 1006.98 1006.69
1026.56 1026.09 1025.60 1025.08 1024.55 1024.02 1023.48 1022.96 1022.44 1021.94 1021.44 1020.94 1020.44 1019.92 1019.40 1018.86 1018.29 1017.72 1017.14 1016.55 1015.97 1015.41 1014.87 1014.36 1013.88 1013.43 1013.00 1012.59 1012.19 1011.79 1011.38 1010.97 1010.55 1010.11 1009.65 1009.19 1008.72 1008.25 1007.79 1007.34 1006.91 1006.51 1006.15
1026.56 1026.12 1025.64 1025.14 1024.62 1024.08 1023.54 1022.99 1022.44 1021.90 1021.37 1020.84 1020.30 1019.76 1019.21 1018.66 1018.09 1017.51 1016.93 1016.35 1015.78 1015.22 1014.69 1014.17 1013.68 1013.22 1012.79 1012.37 1011.97 1011.57 1011.17 1010.77 1010.35 1009.91 1009.46 1008.99 1008.51 1008.02 1007.52 1007.03 1006.55 1006.09 1005.66
1026.52 1026.09 1025.63 1025.14 1024.63 1024.09 1023.54 1022.97 1022.40 1021.83 1021.26 1020.69 1020.12 1019.55 1018.98 1018.39 1017.81 1017.21 1016.62 1016.02 1015.44 1014.87 1014.32 1013.79 1013.29 1012.82 1012.37 1011.95 1011.55 1011.16 1010.77 1010.39 1009.99 1009.57 1009.14 1008.68 1008.20 1007.70 1007.19 1006.67 1006.16 1005.65 1005.18
1026.41 1026.00 1025.55 1025.07 1024.55 1024.02 1023.46 1022.88 1022.29 1021.70 1021.10 1020.49 1019.89 1019.28 1018.67 1018.05 1017.43 1016.80 1016.17 1015.55 1014.93 1014.33 1013.75 1013.20 1012.67 1012.18 1011.73 1011.31 1010.91 1010.53 1010.17 1009.81 1009.44 1009.05 1008.64 1008.21 1007.74 1007.25 1006.74 1006.21 1005.67 1005.14 1004.63
1026.24 1025.82 1025.37 1024.89 1024.38 1023.84 1023.28 1022.69 1022.09 1021.48 1020.85 1020.22 1019.58 1018.93 1018.27 1017.61 1016.94 1016.26 1015.59 1014.91 1014.25 1013.60 1012.98 1012.39 1011.83 1011.32 1010.85 1010.42 1010.03 1009.67 1009.33 1008.99 1008.66 1008.31 1007.93 1007.53 1007.09 1006.62 1006.12 1005.59 1005.05 1004.51 1003.98
Thickness
5726 5724 5720 5718 5715 5713 5711 5709 5707 5705 5703 5701 5699 5698 5696 5694 5692 5690 5689 5687 5686 5685 5683 5681 5678 5676 5675 5674 5672 5670 5668 5665 5662 5663 5663 5662 5660 5659 5658 5657 5658 5660 5661
5724 5721 5719 5716 5713 5711 5709 5707 5705 5702 5700 5699 5697 5695 5693 5691 5689 5687 5685 5683 5682 5680 5679 5677 5675 5672 5670 5669 5667 5666 5664 5662 5659 5657 5658 5657 5654 5653 5652 5651 5653 5654 5654
5721 5719 5716 5714 5711 5709 5706 5704 5702 5700 5698 5695 5693 5691 5689 5687 5685 5683 5682 5680 5678 5677 5675 5673 5671 5669 5667 5665 5663 5662 5660 5658 5655 5653 5652 5650 5649 5647 5646 5647 5648 5648 5649
5719 5716 5713 5712 5709 5706 5704 5701 5699 5697 5694 5692 5690 5687 5685 5683 5681 5680 5678 5676 5675 5673 5670 5668 5667 5665 5663 5661 5658 5657 5654 5652 5650 5649 5647 5646 5644 5642 5642 5642 5642 5643 5643
5717 5714 5711 5710 5707 5703 5700 5697 5695 5692 5690 5688 5686 5683 5681 5679 5677 5676 5674 5672 5671 5669 5667 5664 5661 5657 5654 5653 5652 5650 5648 5647 5645 5643 5642 5641 5639 5636 5635 5635 5635 5636 5637
5715 5712 5709 5706 5702 5699 5696 5694 5691 5688 5686 5684 5681 5679 5677 5675 5670 5667 5667 5667 5667 5665 5662 5660 5657 5653 5649 5645 5643 5640 5639 5639 5638 5636 5635 5634 5633 5631 5628 5627 5628 5629 5629
5713 5710 5706 5703 5698 5696 5693 5690 5686 5684 5681 5679 5677 5675 5674 5670 5665 5662 5660 5661 5661 5660 5658 5656 5653 5650 5645 5644 5640 5635 5633 5629 5627 5628 5628 5627 5625 5624 5621 5620 5620 5619 5619
5710 5707 5703 5699 5695 5692 5689 5686 5683 5682 5678 5675 5673 5671 5668 5665 5661 5658 5656 5656 5656 5655 5653 5651 5648 5646 5641 5638 5637 5634 5632 5628 5623 5622 5621 5619 5617 5614 5612 5611 5610 5611 5612
5707 5704 5701 5697 5692 5688 5685 5682 5679 5677 5674 5671 5669 5667 5664 5661 5656 5653 5650 5652 5652 5650 5648 5645 5643 5640 5633 5629 5628 5628 5625 5623 5617 5613 5610 5608 5605 5603 5601 5602 5602 5603 5604
5703 5701 5698 5694 5689 5685 5682 5679 5675 5672 5669 5666 5664 5662 5660 5658 5652 5648 5644 5647 5647 5645 5642 5640 5634 5631 5626 5621 5621 5620 5617 5615 5612 5610 5606 5603 5601 5598 5594 5593 5593 5593 5594
5699 5696 5692 5689 5684 5681 5677 5674 5670 5667 5664 5661 5659 5656 5654 5651 5647 5642 5638 5639 5639 5638 5636 5634 5630 5622 5617 5613 5610 5610 5608 5604 5603 5601 5600 5598 5595 5593 5591 5588 5585 5583 5583
5692 5688 5685 5683 5679 5675 5670 5667 5665 5661 5657 5655 5653 5651 5648 5645 5641 5636 5632 5629 5628 5629 5628 5626 5622 5614 5609 5605 5602 5599 5596 5593 5594 5593 5591 5590 5587 5585 5583 5580 5578 5576 5575
5684 5681 5678 5675 5672 5668 5664 5660 5657 5654 5652 5650 5647 5644 5642 5639 5635 5629 5625 5622 5619 5618 5618 5614 5609 5604 5600 5598 5594 5590 5587 5586 5585 5584 5582 5580 5578 5575 5572 5570 5568 5567 5566
5677 5674 5671 5669 5665 5661 5657 5654 5651 5647 5645 5642 5640 5637 5634 5631 5628 5624 5620 5616 5612 5609 5608 5604 5599 5595 5591 5588 5586 5584 5581 5578 5576 5573 5571 5569 5567 5564 5561 5559 5558 5556 5556
5670 5667 5663 5660 5657 5653 5648 5645 5642 5639 5636 5633 5631 5628 5625 5622 5618 5613 5610 5608 5605 5602 5598 5596 5593 5590 5588 5585 5581 5577 5573 5569 5565 5562 5560 5558 5555 5553 5551 5549 5546 5545 5544
5662 5658 5654 5651 5647 5644 5640 5635 5629 5627 5623 5619 5617 5615 5614 5609 5605 5602 5598 5595 5591 5587 5585 5585 5583 5580 5577 5574 5571 5567 5563 5559 5555 5551 5548 5545 5543 5541 5539 5538 5535 5533 5533
5652 5648 5644 5641 5638 5634 5631 5628 5624 5617 5612 5609 5606 5603 5600 5597 5594 5590 5587 5583 5579 5575 5575 5574 5572 5568 5565 5561 5557 5554 5550 5547 5542 5539 5535 5533 5530 5528 5526 5524 5522 5521 5520
5640 5636 5633 5629 5627 5625 5622 5619 5616 5613 5609 5604 5598 5593 5589 5586 5582 5579 5574 5571 5570 5567 5565 5562 5559 5555 5551 5547 5544 5540 5537 5533 5529 5526 5523 5520 5517 5514 5512 5511 5509 5507 5507
5629 5625 5622 5619 5616 5614 5611 5608 5605 5602 5600 5596 5592 5586 5579 5574 5570 5566 5562 5562 5560 5557 5553 5548 5544 5540 5537 5533 5530 5526 5522 5519 5515 5512 5509 5505 5503 5500 5498 5497 5495 5494 5490
5616 5611 5609 5607 5605 5602 5599 5596 5594 5591 5588 5584 5581 5576 5570 5565 5562 5558 5553 5551 5547 5544 5539 5535 5531 5526 5522 5518 5515 5511 5508 5504 5501 5497 5495 5492 5489 5486 5484 5483 5481 5480 5479
5604 5600 5595 5595 5593 5590 5587 5585 5582 5579 5576 5572 5568 5563 5555 5554 5551 5547 5543 5539 5535 5530 5526 5522 5518 5513 5508 5504 5500 5497 5493 5490 5486 5483 5481 5478 5476 5473 5471 5469 5467 5466 5465
5593 5589 5586 5583 5580 5577 5575 5572 5569 5566 5563 5559 5555 5550 5542 5540 5538 5534 5530 5525 5521 5516 5512 5508 5504 5500 5494 5490 5486 5483 5479 5475 5472 5469 5466 5464 5462 5460 5458 5456 5454 5452 5451
5580 5578 5574 5571 5568 5563 5561 5558 5555 5552 5550 5546 5542 5537 5532 5528 5524 5521 5517 5512 5507 5503 5498 5494 5490 5486 5481 5476 5471 5467 5464 5461 5457 5454 5451 5450 5448 5446 5445 5443 5442 5440 5439
5568 5565 5562 5559 5555 5552 5548 5545 5542 5538 5536 5532 5528 5524 5519 5515 5511 5507 5503 5498 5494 5490 5485 5481 5477 5472 5467 5462 5457 5453 5449 5445 5441 5439 5437 5435 5434 5433 5431 5430 5429 5428 5427
5555 5552 5549 5546 5542 5538 5535 5531 5528 5525 5522 5519 5515 5511 5506 5502 5498 5494 5489 5485 5480 5476 5472 5468 5464 5459 5455 5450 5445 5440 5436 5431 5426 5423 5422 5422 5421 5420 5418 5417 5416 5415 5415
5543 5539 5536 5532 5529 5525 5522 5519 5515 5512 5508 5504 5501 5498 5493 5489 5485 5480 5476 5471 5467 5463 5459 5455 5451 5447 5442 5437 5433 5428 5423 5418 5414 5410 5408 5409 5409 5408 5407 5406 5405 5405 5405